Location: Newark
(35.6799°N, 139.7636°E)
Time: 05:02:57
(UTC+00:00)

Vanguard 1 Rocket - Pass Details

Date: 21 December 2019
Orbit: 650 x 4226 km, 34.3° (Epoch: 19 January)

Event Time Altitude Azimuth Distance (km) Brightness Sun altitude
Rises 08:24:09 0° 238° (WSW) 8,249 14.2 -10.6°
Reaches altitude 10° 08:29:42 10° 237° (WSW) 7,368 13.4 -11.7°
Maximum altitude 08:55:52 71° 159° (SSE) 3,838 10.4 -16.7°
Enters shadow 09:09:31 23° 83° (E) 4,586 10.3 -19.4°
